Location: Bow
(51.5261°N, 0.0167°W)
Time: 04:57:33
(UTC+00:00)

SJ 16-02 - Pass Details

Date: 18 September 2020
Orbit: 606 x 616 km, 75.0° (Epoch: 20 October)

Event Time Altitude Azimuth Distance (km) Brightness Sun altitude
Rises 19:37:15 0° 235° (SW) 2,859 5.3 -14.5°
Reaches altitude 10° 19:39:46 10° 247° (WSW) 1,959 4.6 -14.9°
Maximum altitude 19:43:29 27° 306° (NW) 1,188 3.7 -15.4°
Drops below altitude 10° 19:47:14 10° 4° (N) 1,970 4.2 -16.0°
Sets 19:49:46 0° 17° (NNE) 2,878 4.9 -16.3°
